• In Czech Republic
  • List of Countries
  • For 7 days
  • Water Temperature
  • Satellite Maps
  • Weather Map
  • Weather Widgets
  • user-avatar
    Login

    Hourly Weather Albany

    Today, 12 November, Monday

    Time Temperature Precipitation Wind Pressure Humidity
    00:00 +13°C° 0 mm 3 mps 756 mmHg 84%
    01:00 +13°C° 0 mm 3 mps 756 mmHg 85%
    02:00 +12°C° 0 mm 3 mps 756 mmHg 87%
    03:00 +13°C° 0 mm 3 mps 756 mmHg 88%
    04:00 +13°C° 0 mm 3 mps 756 mmHg 89%
    05:00 +13°C° 0 mm 3 mps 756 mmHg 89%
    06:00 +14°C° 0 mm 3 mps 756 mmHg 85%
    07:00 +17°C° 0 mm 3 mps 756 mmHg 80%
    08:00 +18°C° 0 mm 3 mps 757 mmHg 72%
    09:00 +19°C° 0 mm 4 mps 757 mmHg 71%
    10:00 +20°C° 0 mm 4 mps 757 mmHg 69%
    11:00 +21°C° 0 mm 4 mps 757 mmHg 68%
    12:00 +21°C° 0.1 mm 5 mps 757 mmHg 69%
    13:00 +20°C° 0.1 mm 5 mps 757 mmHg 70%
    14:00 +20°C° 0 mm 5 mps 756 mmHg 72%
    15:00 +20°C° 0 mm 5 mps 756 mmHg 73%
    16:00 +19°C° 0 mm 5 mps 757 mmHg 74%
    17:00 +19°C° 0 mm 6 mps 757 mmHg 75%
    18:00 +17°C° 0 mm 5 mps 757 mmHg 79%
    19:00 +16°C° 0 mm 5 mps 757 mmHg 83%
    20:00 +15°C° 0 mm 5 mps 758 mmHg 87%
    21:00 +15°C° 0 mm 4 mps 758 mmHg 87%
    22:00 +15°C° 0 mm 4 mps 758 mmHg 87%
    23:00 +14°C° 0 mm 4 mps 758 mmHg 88%

    Tomorrow, 13 November, Tuesday

    Time Temperature Precipitation Wind Pressure Humidity
    00:00 +14°C° 0 mm 4 mps 758 mmHg 88%
    01:00 +14°C° 0 mm 4 mps 758 mmHg 89%
    02:00 +14°C° 0 mm 4 mps 758 mmHg 89%
    03:00 +14°C° 0.1 mm 4 mps 758 mmHg 90%
    04:00 +14°C° 0.1 mm 4 mps 758 mmHg 90%
    05:00 +14°C° 0.1 mm 4 mps 758 mmHg 90%
    06:00 +15°C° 0.1 mm 4 mps 759 mmHg 88%
    07:00 +15°C° 0.1 mm 4 mps 759 mmHg 85%
    08:00 +17°C° 0.1 mm 4 mps 759 mmHg 83%
    09:00 +17°C° 0.1 mm 4 mps 760 mmHg 81%
    10:00 +17°C° 0.1 mm 4 mps 760 mmHg 79%
    11:00 +17°C° 0.1 mm 4 mps 760 mmHg 76%
    12:00 +17°C° 0 mm 4 mps 760 mmHg 72%
    13:00 +18°C° 0 mm 4 mps 760 mmHg 68%
    14:00 +18°C° 0 mm 4 mps 760 mmHg 63%
    15:00 +18°C° 0 mm 4 mps 760 mmHg 65%
    16:00 +17°C° 0 mm 4 mps 760 mmHg 66%
    17:00 +15°C° 0 mm 4 mps 760 mmHg 68%
    18:00 +14°C° 0 mm 4 mps 760 mmHg 71%
    19:00 +13°C° 0 mm 3 mps 761 mmHg 74%
    20:00 +12°C° 0 mm 3 mps 761 mmHg 78%
    21:00 +11°C° 0 mm 3 mps 761 mmHg 79%
    22:00 +11°C° 0 mm 3 mps 762 mmHg 80%
    23:00 +11°C° 0 mm 3 mps 762 mmHg 82%

    Day after tomorrow, 14 November, Wednesday

    Time Temperature Precipitation Wind Pressure Humidity
    00:00 +10°C° 0 mm 2 mps 762 mmHg 82%
    01:00 +10°C° 0 mm 2 mps 762 mmHg 82%
    02:00 +10°C° 0 mm 2 mps 762 mmHg 83%
    03:00 +10°C° 0 mm 2 mps 762 mmHg 83%
    04:00 +10°C° 0 mm 2 mps 762 mmHg 83%
    05:00 +9°C° 0 mm 2 mps 762 mmHg 83%
    06:00 +12°C° 0 mm 2 mps 762 mmHg 75%
    07:00 +13°C° 0 mm 3 mps 763 mmHg 68%
    08:00 +16°C° 0 mm 3 mps 763 mmHg 60%
    09:00 +17°C° 0 mm 3 mps 763 mmHg 56%
    10:00 +18°C° 0 mm 3 mps 763 mmHg 52%
    11:00 +20°C° 0 mm 4 mps 763 mmHg 49%
    12:00 +20°C° 0 mm 4 mps 763 mmHg 49%
    13:00 +20°C° 0 mm 5 mps 762 mmHg 49%
    14:00 +21°C° 0 mm 5 mps 762 mmHg 49%
    15:00 +20°C° 0 mm 6 mps 762 mmHg 53%
    16:00 +19°C° 0 mm 6 mps 762 mmHg 57%
    17:00 +17°C° 0 mm 6 mps 761 mmHg 61%
    18:00 +15°C° 0 mm 6 mps 762 mmHg 66%
    19:00 +14°C° 0 mm 6 mps 762 mmHg 71%
    20:00 +13°C° 0 mm 6 mps 762 mmHg 76%
    21:00 +13°C° 0 mm 6 mps 762 mmHg 78%
    22:00 +11°C° 0 mm 6 mps 762 mmHg 79%
    23:00 +11°C° 0 mm 6 mps 762 mmHg 81%

    15 November, Thursday

    Time Temperature Precipitation Wind Pressure Humidity
    00:00 +12°C° 0 mm 5 mps 762 mmHg 83%
    01:00 +12°C° 0 mm 5 mps 761 mmHg 84%
    02:00 +12°C° 0 mm 5 mps 761 mmHg 86%
    03:00 +12°C° 0 mm 4 mps 760 mmHg 87%
    04:00 +12°C° 0 mm 4 mps 760 mmHg 88%
    05:00 +12°C° 0 mm 4 mps 760 mmHg 89%
    06:00 +14°C° 0 mm 4 mps 760 mmHg 82%
    07:00 +17°C° 0 mm 4 mps 760 mmHg 75%
    08:00 +19°C° 0 mm 4 mps 761 mmHg 68%
    09:00 +22°C° 0 mm 4 mps 760 mmHg 62%
    10:00 +25°C° 0 mm 4 mps 760 mmHg 57%
    11:00 +27°C° 0 mm 3 mps 760 mmHg 51%
    12:00 +26°C° 0 mm 4 mps 760 mmHg 54%
    13:00 +26°C° 0 mm 5 mps 759 mmHg 57%
    14:00 +24°C° 0 mm 6 mps 759 mmHg 59%
    15:00 +23°C° 0 mm 6 mps 759 mmHg 65%
    16:00 +21°C° 0 mm 6 mps 759 mmHg 70%
    17:00 +20°C° 0 mm 7 mps 759 mmHg 76%
    18:00 +19°C° 0 mm 6 mps 760 mmHg 80%
    19:00 +17°C° 0 mm 6 mps 760 mmHg 84%
    20:00 +16°C° 0 mm 6 mps 760 mmHg 89%
    21:00 +16°C° 0 mm 6 mps 760 mmHg 90%
    22:00 +15°C° 0 mm 5 mps 760 mmHg 91%
    23:00 +15°C° 0 mm 5 mps 760 mmHg 93%

    16 November, Friday

    Time Temperature Precipitation Wind Pressure Humidity
    00:00 +16°C° 0 mm 5 mps 760 mmHg 92%
    01:00 +16°C° 0 mm 5 mps 759 mmHg 91%
    02:00 +16°C° 0 mm 5 mps 758 mmHg 91%
    03:00 +16°C° 0 mm 5 mps 758 mmHg 92%
    04:00 +16°C° 0 mm 5 mps 758 mmHg 92%
    05:00 +17°C° 0 mm 4 mps 758 mmHg 93%
    06:00 +18°C° 0.2 mm 4 mps 758 mmHg 92%
    07:00 +18°C° 0.2 mm 4 mps 758 mmHg 91%
    08:00 +18°C° 0.2 mm 4 mps 758 mmHg 90%
    09:00 +20°C° 0.2 mm 4 mps 758 mmHg 84%
    10:00 +21°C° 0.2 mm 4 mps 757 mmHg 78%
    11:00 +24°C° 0.2 mm 3 mps 757 mmHg 71%
    12:00 +25°C° 0.1 mm 4 mps 756 mmHg 68%
    13:00 +26°C° 0.1 mm 4 mps 756 mmHg 64%
    14:00 +27°C° 0.1 mm 4 mps 755 mmHg 61%
    15:00 +25°C° 0.3 mm 4 mps 755 mmHg 69%
    16:00 +22°C° 0.3 mm 5 mps 755 mmHg 76%
    17:00 +21°C° 0.3 mm 5 mps 754 mmHg 84%
    18:00 +20°C° 0.2 mm 4 mps 755 mmHg 88%
    19:00 +19°C° 0.2 mm 4 mps 755 mmHg 92%
    20:00 +18°C° 0.2 mm 3 mps 755 mmHg 97%
    21:00 +18°C° 0 mm 3 mps 755 mmHg 96%
    22:00 +17°C° 0 mm 3 mps 755 mmHg 96%
    23:00 +17°C° 0 mm 3 mps 754 mmHg 96%

    17 November, Saturday

    Time Temperature Precipitation Wind Pressure Humidity
    00:00 +17°C° 0 mm 3 mps 754 mmHg 96%
    01:00 +17°C° 0 mm 2 mps 753 mmHg 96%
    02:00 +17°C° 0 mm 2 mps 753 mmHg 96%
    03:00 +17°C° 0 mm 2 mps 753 mmHg 96%
    04:00 +17°C° 0 mm 3 mps 753 mmHg 96%
    05:00 +17°C° 0 mm 3 mps 752 mmHg 96%
    06:00 +17°C° 0 mm 3 mps 753 mmHg 93%
    07:00 +18°C° 0 mm 4 mps 753 mmHg 91%
    08:00 +18°C° 0 mm 4 mps 753 mmHg 88%
    09:00 +19°C° 0.1 mm 4 mps 753 mmHg 85%
    10:00 +19°C° 0.1 mm 4 mps 753 mmHg 83%
    11:00 +20°C° 0.1 mm 5 mps 753 mmHg 80%
    12:00 +20°C° 0 mm 5 mps 753 mmHg 79%
    13:00 +20°C° 0 mm 5 mps 753 mmHg 78%
    14:00 +20°C° 0 mm 5 mps 753 mmHg 77%
    15:00 +19°C° 0 mm 5 mps 753 mmHg 78%
    16:00 +19°C° 0 mm 5 mps 753 mmHg 79%
    17:00 +17°C° 0 mm 5 mps 754 mmHg 81%
    18:00 +17°C° 0 mm 5 mps 754 mmHg 83%
    19:00 +16°C° 0 mm 5 mps 754 mmHg 85%
    20:00 +15°C° 0 mm 4 mps 755 mmHg 87%
    21:00 +15°C° 0 mm 4 mps 755 mmHg 88%
    22:00 +15°C° 0 mm 4 mps 754 mmHg 88%
    23:00 +14°C° 0 mm 4 mps 754 mmHg 89%
    Show more